Home   Weather   Freising   Past weeks

Flag for Germany Past Weather in Freising, Bavaria, Germany — Yesterday and Last 2 Weeks

Now
46 °F

Cool.


Feels Like: 46 °F
Forecast: 46 / 68 °F
Wind: No wind

Location: Munich / Franz Josef Strauss Airport

Current Time: Sep 25, 2016 at 9:21:36 AM

Latest Report: Sep 25, 2016 at 8:50 AM


Visibility: 1 mi

Pressure: 30.18 "Hg

Humidity: 100%

Dew Point: 46 °F

Location of FreisingLocation

Past Weather in Freising — Graph

°F

Freising Temperature Yesterday

Maximum temperature yesterday: 68 °F (at 2:50 PM)
Minimum temperature yesterday: 41 °F (at 4:20 AM)
Average temperature yesterday: 52 °F

High & Low Weather Summary for the Past Weeks

 TemperatureHumidityPressure
High82 °F (Sep 12, 3:20 PM)100% (Sep 10, 8:20 AM)30.36 "Hg (Sep 10, 8:20 AM)
Low37 °F (Sep 21, 5:50 AM)30% (Sep 15, 4:50 PM)29.86 "Hg (Sep 15, 2:50 PM)
Average59 °F84%30.05 "Hg
* Reported Sep 10 8:20 AM — Sep 25 8:20 AM, Freising, Weather by CustomWeather, © 2016

Note: Actual official high and low records may vary slightly from our data, if they occured in-between our weather recording intervals... More about our weather records

Advertising

Freising Weather History for the Previous 24 Hours

Scroll right to see more
 ConditionsComfort  
Time TempWeatherWind HumidityBarometerVisibility
8:20 AM
Sun, Sep 25
43 °FQuite cool.1 mph100%30.18 "Hg1 mi
7:50 AM39 °FChilly.1 mph100%30.18 "Hg1 mi
7:20 AM39 °FChilly.1 mph100%30.18 "Hg1 mi
6:50 AM39 °FSnow. Overcast.1 mph100%30.18 "Hg1 mi
6:20 AM39 °FChilly.2 mph100%30.18 "Hg1 mi
5:50 AM39 °FChilly.2 mph100%30.18 "Hg2 mi
5:20 AM39 °FChilly.1 mph100%30.18 "Hg2 mi
4:50 AM41 °FQuite cool.1 mph100%30.18 "Hg2 mi
4:20 AM39 °FChilly.No wind100%30.18 "Hg3 mi
3:50 AM41 °FQuite cool.No wind100%30.18 "Hg3 mi
3:20 AM41 °FQuite cool.1 mph100%30.21 "Hg4 mi
2:50 AM43 °FLight fog.1 mph100%30.21 "Hg4 mi
2:20 AM43 °FQuite cool.2 mph100%30.21 "Hg5 mi
1:50 AM43 °FQuite cool.1 mph100%30.21 "Hg5 mi
1:20 AM45 °FQuite cool.1 mph100%30.21 "HgN/A
12:50 AM45 °FQuite cool.1 mph100%30.21 "HgN/A
12:20 AM45 °FLight fog.No wind100%30.21 "HgN/A
11:50 PM
Sat, Sep 24
45 °FFog.1 mph100%30.21 "HgN/A
11:20 PM46 °FFog.1 mph100%30.24 "HgN/A
10:50 PM46 °FFog.1 mph100%30.24 "HgN/A
10:20 PM48 °FFog.2 mph100%30.24 "HgN/A
9:50 PM48 °FFog.3 mph100%30.24 "HgN/A
9:20 PM50 °FFog.2 mph100%30.24 "HgN/A
8:50 PM52 °FClear.1 mph94%30.24 "Hg10 mi
8:20 PM52 °FClear.1 mph88%30.24 "Hg10 mi
7:50 PM57 °FClear.2 mph72%30.24 "Hg10 mi
7:20 PM61 °FPassing clouds.3 mph63%30.24 "HgN/A
6:50 PM64 °FSunny.2 mph56%30.24 "Hg10 mi
6:20 PM66 °FSunny.5 mph52%30.24 "Hg10 mi
5:50 PM66 °FSunny.5 mph52%30.24 "Hg10 mi
5:20 PM66 °FPassing clouds.5 mph49%30.27 "HgN/A
4:50 PM66 °FPassing clouds.6 mph49%30.27 "HgN/A
4:20 PM68 °FSunny.5 mph49%30.27 "Hg10 mi
3:50 PM68 °FPassing clouds.6 mph49%30.27 "HgN/A
3:20 PM68 °FPassing clouds.6 mph53%30.27 "HgN/A
2:50 PM68 °FPassing clouds.7 mph49%30.30 "HgN/A
2:20 PM66 °FPassing clouds.8 mph52%30.30 "HgN/A
1:50 PM66 °FPassing clouds.8 mph56%30.30 "HgN/A
1:20 PM64 °FPassing clouds.8 mph60%30.33 "HgN/A
12:50 PM64 °FPassing clouds.7 mph64%30.33 "HgN/A
12:20 PM61 °FPassing clouds.6 mph83%30.33 "HgN/A
11:50 AM57 °FFog.2 mph100%30.33 "Hg3 mi
11:20 AM54 °FCool.3 mph100%30.36 "Hg1 mi
10:50 AM52 °FCool.3 mph100%30.36 "Hg1 mi
10:20 AM50 °FCool.2 mph100%30.36 "Hg1 mi
9:50 AM50 °FCool.2 mph100%30.36 "Hg1 mi
9:20 AM48 °FCool.2 mph100%30.36 "Hg1 mi
Weather by CustomWeather, © 2016

See weather overviewHow to use our weather pages